owner,sensor,date,latitude,longitude,vertical_datum,direction_of_sea_water_velocity,sea_water_speed,upward_sea_water_velocity,qcFlag 
TABS,ioos:station:wmo:42051:1,2005-12-01T00:00:00Z,29.6350,-93.6417,2.0,233.9891379,10.00112494,-99999.0,'11111222,11111222,99999999' 
TABS,ioos:station:wmo:42051:1,2005-12-01T00:30:00Z,29.6350,-93.6417,2.0,231.037837,7.999331222,-99999.0,'11133222,11111222,99999999' 
TABS,ioos:station:wmo:42051:1,2005-12-01T01:00:00Z,29.6350,-93.6417,2.0,224.9996843,8.004448763,-99999.0,'11133222,11111222,99999999' 
TABS,ioos:station:wmo:42051:1,2005-12-01T01:30:00Z,29.6350,-93.6417,2.0,222.0140141,10.99629483,-99999.0,'11111222,11111222,99999999' 
TABS,ioos:station:wmo:42051:1,2005-12-01T02:00:00Z,29.6350,-93.6417,2.0,234.0227929,5.004607877,-99999.0,'11133222,11111222,99999999' 
TABS,ioos:station:wmo:42051:1,2005-12-01T02:30:00Z,29.6350,-93.6417,2.0,224.9996843,5.996265504,-99999.0,'11133222,11111222,99999999' 
TABS,ioos:station:wmo:42051:1,2005-12-01T03:00:00Z,29.6350,-93.6417,2.0,231.037837,7.999331222,-99999.0,'11133222,11111222,99999999' 
TABS,ioos:station:wmo:42051:1,2005-12-01T03:30:00Z,29.6350,-93.6417,2.0,244.9728502,6.996942189,-99999.0,'11133222,11111222,99999999' 
TABS,ioos:station:wmo:42051:1,2005-12-01T04:00:00Z,29.6350,-93.6417,2.0,245.0288882,9.00142211,-99999.0,'11133222,11111222,99999999' 
TABS,ioos:station:wmo:42051:1,2005-12-01T04:30:00Z,29.6350,-93.6417,2.0,244.9728502,6.996942189,-99999.0,'11133222,11111222,99999999' 
TABS,ioos:station:wmo:42051:1,2005-12-01T05:00:00Z,29.6350,-93.6417,2.0,263.0268261,7.001785487,-99999.0,'11133222,11111222,99999999' 
TABS,ioos:station:wmo:42051:1,2005-12-01T05:30:00Z,29.6350,-93.6417,2.0,270.0004209,4.0,-99999.0,'11133222,11111222,99999999' 
TABS,ioos:station:wmo:42051:1,2005-12-01T06:00:00Z,29.6350,-93.6417,2.0,237.0135442,6.998071163,-99999.0,'11133222,11111222,99999999' 
TABS,ioos:station:wmo:42051:1,2005-12-01T06:30:00Z,29.6350,-93.6417,2.0,255.0101839,6.998121176,-99999.0,'11133222,11111222,99999999' 
TABS,ioos:station:wmo:42051:1,2005-12-01T07:00:00Z,29.6350,-93.6417,2.0,224.9996843,9.998489886,-99999.0,'11133222,11111222,99999999' 
TABS,ioos:station:wmo:42051:1,2005-12-01T07:30:00Z,29.6350,-93.6417,2.0,222.0065593,13.00021538,-99999.0,'11111222,11111222,99999999' 
TABS,ioos:station:wmo:42051:1,2005-12-01T08:00:00Z,29.6350,-93.6417,2.0,244.9953296,11.00106358,-99999.0,'11111222,11111222,99999999' 
TABS,ioos:station:wmo:42051:1,2005-12-01T08:30:00Z,29.6350,-93.6417,2.0,224.000286,15.00001667,-99999.0,'11111222,11111222,99999999' 
TABS,ioos:station:wmo:42051:1,2005-12-01T09:00:00Z,29.6350,-93.6417,2.0,227.9982728,15.0041361,-99999.0,'11111222,11111222,99999999' 
TABS,ioos:station:wmo:42051:1,2005-12-01T09:30:00Z,29.6350,-93.6417,2.0,222.0140141,10.99629483,-99999.0,'11111222,11111222,99999999' 
TABS,ioos:station:wmo:42051:1,2005-12-01T10:00:00Z,29.6350,-93.6417,2.0,210.0004472,9.999779998,-99999.0,'11133222,11111222,99999999' 
TABS,ioos:station:wmo:42051:1,2005-12-01T10:30:00Z,29.6350,-93.6417,2.0,221.9821718,8.999805553,-99999.0,'11133222,11111222,99999999' 
TABS,ioos:station:wmo:42051:1,2005-12-01T11:00:00Z,29.6350,-93.6417,2.0,212.9835503,9.000694418,-99999.0,'11133222,11111222,99999999' 
TABS,ioos:station:wmo:42051:1,2005-12-01T11:30:00Z,29.6350,-93.6417,2.0,203.9694944,7.9999125,-99999.0,'11133222,11111222,99999999' 
TABS,ioos:station:wmo:42051:1,2005-12-01T12:00:00Z,29.6350,-93.6417,2.0,189.044765,6.997006503,-99999.0,'11133222,11111222,99999999' 
TABS,ioos:station:wmo:42051:1,2005-12-01T12:30:00Z,29.6350,-93.6417,2.0,202.9724572,4.996248593,-99999.0,'11133222,11111222,99999999' 
TABS,ioos:station:wmo:42051:1,2005-12-01T13:00:00Z,29.6350,-93.6417,2.0,202.9724572,4.996248593,-99999.0,'11133222,11111222,99999999' 
TABS,ioos:station:wmo:42051:1,2005-12-01T13:30:00Z,29.6350,-93.6417,2.0,179.9997895,3.0,-99999.0,'11133222,11111222,99999999' 
TABS,ioos:station:wmo:42051:1,2005-12-01T14:00:00Z,29.6350,-93.6417,2.0,90.0,1.0,-99999.0,'11133222,11111222,99999999' 
TABS,ioos:station:wmo:42051:1,2005-12-01T14:30:00Z,29.6350,-93.6417,2.0,270.0004209,3.0,-99999.0,'11133222,11111222,99999999' 
TABS,ioos:station:wmo:42051:1,2005-12-01T15:00:00Z,29.6350,-93.6417,2.0,297.078109,1.999124809,-99999.0,'11133222,11111222,99999999' 
TABS,ioos:station:wmo:42051:1,2005-12-01T15:30:00Z,29.6350,-93.6417,2.0,270.0004209,2.0,-99999.0,'11133222,11111222,99999999' 
TABS,ioos:station:wmo:42051:1,2005-12-01T16:00:00Z,29.6350,-93.6417,2.0,297.078109,1.999124809,-99999.0,'11133222,11111222,99999999' 
TABS,ioos:station:wmo:42051:1,2005-12-01T16:30:00Z,29.6350,-93.6417,2.0,297.078109,3.998249617,-99999.0,'11133222,11111222,99999999' 
TABS,ioos:station:wmo:42051:1,2005-12-01T17:00:00Z,29.6350,-93.6417,2.0,257.0049927,4.002499219,-99999.0,'11133222,11111222,99999999' 
TABS,ioos:station:wmo:42051:1,2005-12-01T17:30:00Z,29.6350,-93.6417,2.0,270.0004209,4.0,-99999.0,'11133222,11111222,99999999' 
TABS,ioos:station:wmo:42051:1,2005-12-01T18:00:00Z,29.6350,-93.6417,2.0,257.0049927,4.002499219,-99999.0,'11133222,11111222,99999999' 
TABS,ioos:station:wmo:42051:1,2005-12-01T18:30:00Z,29.6350,-93.6417,2.0,285.0795196,3.997649309,-99999.0,'11133222,11111222,99999999' 
TABS,ioos:station:wmo:42051:1,2005-12-01T19:00:00Z,29.6350,-93.6417,2.0,270.0004209,4.0,-99999.0,'11133222,11111222,99999999' 
TABS,ioos:station:wmo:42051:1,2005-12-01T19:30:00Z,29.6350,-93.6417,2.0,255.0101839,6.998121176,-99999.0,'11133222,11111222,99999999' 
TABS,ioos:station:wmo:42051:1,2005-12-01T20:00:00Z,29.6350,-93.6417,2.0,259.9716938,4.996328652,-99999.0,'11133222,11111222,99999999' 
TABS,ioos:station:wmo:42051:1,2005-12-01T20:30:00Z,29.6350,-93.6417,2.0,270.0004209,6.0,-99999.0,'11133222,11111222,99999999' 
TABS,ioos:station:wmo:42051:1,2005-12-01T21:00:00Z,29.6350,-93.6417,2.0,252.04766,6.002216257,-99999.0,'11133222,11111222,99999999' 
TABS,ioos:station:wmo:42051:1,2005-12-01T21:30:00Z,29.6350,-93.6417,2.0,236.0050404,12.00110828,-99999.0,'11111222,11111222,99999999' 
TABS,ioos:station:wmo:42051:1,2005-12-01T22:00:00Z,29.6350,-93.6417,2.0,224.9996843,11.00258152,-99999.0,'11111222,11111222,99999999' 
TABS,ioos:station:wmo:42051:1,2005-12-01T22:30:00Z,29.6350,-93.6417,2.0,218.9849087,10.99949544,-99999.0,'11111222,11111222,99999999' 
TABS,ioos:station:wmo:42051:1,2005-12-01T23:00:00Z,29.6350,-93.6417,2.0,227.8021293,12.14848139,-99999.0,'11111222,11111222,99999999' 
TABS,ioos:station:wmo:42051:1,2005-12-01T23:30:00Z,29.6350,-93.6417,2.0,224.9996843,15.99475539,-99999.0,'11111222,11111222,99999999' 
TABS,ioos:station:wmo:42051:1,2005-12-02T00:00:00Z,29.6350,-93.6417,2.0,227.9982728,15.0041361,-99999.0,'11111222,11111222,99999999' 
TABS,ioos:station:wmo:42051:1,2005-12-02T00:30:00Z,29.6350,-93.6417,2.0,220.9738696,13.99990357,-99999.0,'11111222,11111222,99999999' 
TABS,ioos:station:wmo:42051:1,2005-12-02T01:00:00Z,29.6350,-93.6417,2.0,212.9835503,9.000694418,-99999.0,'11133222,11111222,99999999' 
TABS,ioos:station:wmo:42051:1,2005-12-02T01:30:00Z,29.6350,-93.6417,2.0,216.0036736,8.999027725,-99999.0,'11133222,11111222,99999999' 
TABS,ioos:station:wmo:42051:1,2005-12-02T02:00:00Z,29.6350,-93.6417,2.0,218.9849087,10.99949544,-99999.0,'11111222,11111222,99999999' 
TABS,ioos:station:wmo:42051:1,2005-12-02T02:30:00Z,29.6350,-93.6417,2.0,220.9970358,8.002755775,-99999.0,'11133222,11111222,99999999' 
TABS,ioos:station:wmo:42051:1,2005-12-02T03:00:00Z,29.6350,-93.6417,2.0,218.0153611,10.0019998,-99999.0,'11111222,11111222,99999999' 
TABS,ioos:station:wmo:42051:1,2005-12-02T03:30:00Z,29.6350,-93.6417,2.0,231.037837,7.999331222,-99999.0,'11133222,11111222,99999999' 
TABS,ioos:station:wmo:42051:1,2005-12-02T04:00:00Z,29.6350,-93.6417,2.0,224.9996843,7.000357134,-99999.0,'11133222,11111222,99999999' 
TABS,ioos:station:wmo:42051:1,2005-12-02T04:30:00Z,29.6350,-93.6417,2.0,228.0408676,5.997641203,-99999.0,'11133222,11111222,99999999' 
TABS,ioos:station:wmo:42051:1,2005-12-02T05:00:00Z,29.6350,-93.6417,2.0,257.0049927,4.002499219,-99999.0,'11133222,11111222,99999999' 
TABS,ioos:station:wmo:42051:1,2005-12-02T05:30:00Z,29.6350,-93.6417,2.0,290.9760974,3.994721517,-99999.0,'11133222,11111222,99999999' 
TABS,ioos:station:wmo:42051:1,2005-12-02T06:00:00Z,29.6350,-93.6417,2.0,234.0227929,5.004607877,-99999.0,'11133222,11111222,99999999' 
TABS,ioos:station:wmo:42051:1,2005-12-02T06:30:00Z,29.6350,-93.6417,2.0,252.04766,6.002216257,-99999.0,'11133222,11111222,99999999' 
TABS,ioos:station:wmo:42051:1,2005-12-02T07:00:00Z,29.6350,-93.6417,2.0,244.9953296,11.00106358,-99999.0,'11111222,11111222,99999999' 
TABS,ioos:station:wmo:42051:1,2005-12-02T07:30:00Z,29.6350,-93.6417,2.0,245.0288882,9.00142211,-99999.0,'11133222,11111222,99999999' 
TABS,ioos:station:wmo:42051:1,2005-12-02T08:00:00Z,29.6350,-93.6417,2.0,252.0175939,16.00162492,-99999.0,'11111222,11111222,99999999' 
TABS,ioos:station:wmo:42051:1,2005-12-02T08:30:00Z,29.6350,-93.6417,2.0,260.0159671,14.99709639,-99999.0,'11111222,11111222,99999999' 
TABS,ioos:station:wmo:42051:1,2005-12-02T09:00:00Z,29.6350,-93.6417,2.0,242.0093005,16.00178115,-99999.0,'11111222,11111222,99999999' 
TABS,ioos:station:wmo:42051:1,2005-12-02T09:30:00Z,29.6350,-93.6417,2.0,242.9975723,17.00355551,-99999.0,'11111222,11111222,99999999' 
TABS,ioos:station:wmo:42051:1,2005-12-02T10:00:00Z,29.6350,-93.6417,2.0,239.9989215,9.999779998,-99999.0,'11133222,11111222,99999999' 
TABS,ioos:station:wmo:42051:1,2005-12-02T10:30:00Z,29.6350,-93.6417,2.0,249.0161042,16.00114058,-99999.0,'11111222,11111222,99999999' 
TABS,ioos:station:wmo:42051:1,2005-12-02T11:00:00Z,29.6350,-93.6417,2.0,228.0171968,17.99961111,-99999.0,'11111222,11111222,99999999' 
TABS,ioos:station:wmo:42051:1,2005-12-02T11:30:00Z,29.6350,-93.6417,2.0,227.0040006,19.00451525,-99999.0,'11111222,11111222,99999999' 
TABS,ioos:station:wmo:42051:1,2005-12-02T12:00:00Z,29.6350,-93.6417,2.0,233.0151892,18.002036,-99999.0,'11111222,11111222,99999999' 
TABS,ioos:station:wmo:42051:1,2005-12-02T12:30:00Z,29.6350,-93.6417,2.0,63.01867205,16.00172491,-99999.0,'11111222,11111222,99999999' 
TABS,ioos:station:wmo:42051:1,2005-12-02T13:00:00Z,29.6350,-93.6417,2.0,235.9817929,15.99781548,-99999.0,'11111222,11111222,99999999' 
TABS,ioos:station:wmo:42051:1,2005-12-03T03:30:00Z,29.6350,-93.6417,2.0,184.9695186,6.002566118,-99999.0,'11133222,11111222,99999999' 
TABS,ioos:station:wmo:42051:1,2005-12-03T04:00:00Z,29.6350,-93.6417,2.0,256.9969406,16.00025312,-99999.0,'11111222,11111222,99999999' 
TABS,ioos:station:wmo:42051:1,2005-12-03T04:30:00Z,29.6350,-93.6417,2.0,260.0098745,20.00327223,-99999.0,'11111222,11111222,99999999' 
TABS,ioos:station:wmo:42051:1,2005-12-03T05:00:00Z,29.6350,-93.6417,2.0,254.9904894,18.99812886,-99999.0,'11111222,11111222,99999999' 
TABS,ioos:station:wmo:42051:1,2005-12-03T05:30:00Z,29.6350,-93.6417,2.0,260.0098745,20.00327223,-99999.0,'11111222,11111222,99999999' 
TABS,ioos:station:wmo:42051:1,2005-12-03T06:00:00Z,29.6350,-93.6417,2.0,247.9916717,16.99866171,-99999.0,'11111222,11111222,99999999' 
TABS,ioos:station:wmo:42051:1,2005-12-03T06:30:00Z,29.6350,-93.6417,2.0,254.9984966,18.00354687,-99999.0,'11111222,11111222,99999999' 
TABS,ioos:station:wmo:42051:1,2005-12-03T07:00:00Z,29.6350,-93.6417,2.0,260.9971858,16.99940293,-99999.0,'11111222,11111222,99999999' 
TABS,ioos:station:wmo:42051:1,2005-12-03T07:30:00Z,29.6350,-93.6417,2.0,255.0091469,15.00048333,-99999.0,'11111222,11111222,99999999' 
TABS,ioos:station:wmo:42051:1,2005-12-03T08:00:00Z,29.6350,-93.6417,2.0,253.9847768,16.99975588,-99999.0,'11111222,11111222,99999999' 
TABS,ioos:station:wmo:42051:1,2005-12-03T08:30:00Z,29.6350,-93.6417,2.0,252.0075683,18.00022222,-99999.0,'11111222,11111222,99999999' 
TABS,ioos:station:wmo:42051:1,2005-12-03T09:00:00Z,29.6350,-93.6417,2.0,245.997349,19.00322341,-99999.0,'11111222,11111222,99999999' 
TABS,ioos:station:wmo:42051:1,2005-12-03T09:30:00Z,29.6350,-93.6417,2.0,238.9838763,17.00066175,-99999.0,'11111222,11111222,99999999' 
TABS,ioos:station:wmo:42051:1,2005-12-03T10:00:00Z,29.6350,-93.6417,2.0,234.0053793,14.00363524,-99999.0,'11111222,11111222,99999999' 
TABS,ioos:station:wmo:42051:1,2005-12-03T10:30:00Z,29.6350,-93.6417,2.0,242.0153049,13.00001538,-99999.0,'11111222,11111222,99999999' 
TABS,ioos:station:wmo:42051:1,2005-12-03T11:00:00Z,29.6350,-93.6417,2.0,235.9824039,16.99906468,-99999.0,'11111222,11111222,99999999' 
TABS,ioos:station:wmo:42051:1,2005-12-03T11:30:00Z,29.6350,-93.6417,2.0,233.0151892,18.002036,-99999.0,'11111222,11111222,99999999' 
TABS,ioos:station:wmo:42051:1,2005-12-03T12:00:00Z,29.6350,-93.6417,2.0,230.9924596,16.99982647,-99999.0,'11111222,11111222,99999999' 
TABS,ioos:station:wmo:42051:1,2005-12-03T12:30:00Z,29.6350,-93.6417,2.0,235.9817929,15.99781548,-99999.0,'11111222,11111222,99999999' 
TABS,ioos:station:wmo:42051:1,2005-12-03T13:00:00Z,29.6350,-93.6417,2.0,237.0135442,13.99614233,-99999.0,'11111222,11111222,99999999' 
TABS,ioos:station:wmo:42051:1,2005-12-03T13:30:00Z,29.6350,-93.6417,2.0,236.0050404,12.00110828,-99999.0,'11111222,11111222,99999999' 
TABS,ioos:station:wmo:42051:1,2005-12-03T14:00:00Z,29.6350,-93.6417,2.0,224.9996843,11.00258152,-99999.0,'11111222,11111222,99999999' 
TABS,ioos:station:wmo:42051:1,2005-12-03T14:30:00Z,29.6350,-93.6417,2.0,231.037837,7.999331222,-99999.0,'11133222,11111222,99999999' 
TABS,ioos:station:wmo:42051:1,2005-12-04T00:00:17Z,29.6350,-93.6417,2.0,299.9966716,13.00144607,-99999.0,'11111222,11111222,99999999' 
TABS,ioos:station:wmo:42051:1,2005-12-04T16:00:00Z,29.6350,-93.6417,2.0,265.9874173,10.00451898,-99999.0,'11111222,11111222,99999999' 
TABS,ioos:station:wmo:42051:1,2005-12-04T16:30:00Z,29.6350,-93.6417,2.0,276.001234,11.00027727,-99999.0,'11111222,11111222,99999999' 
TABS,ioos:station:wmo:42051:1,2005-12-04T17:00:00Z,29.6350,-93.6417,2.0,282.0071011,9.998739921,-99999.0,'11133222,11111222,99999999' 
TABS,ioos:station:wmo:42051:1,2005-12-04T17:30:00Z,29.6350,-93.6417,2.0,285.020996,12.00000833,-99999.0,'11111222,11111222,99999999' 
TABS,ioos:station:wmo:42051:1,2005-12-04T18:30:00Z,29.6350,-93.6417,2.0,305.9820729,11.99944165,-99999.0,'11111222,11111222,99999999' 
TABS,ioos:station:wmo:42051:1,2005-12-04T19:00:00Z,29.6350,-93.6417,2.0,301.99561,12.00341618,-99999.0,'11111222,11111222,99999999' 
TABS,ioos:station:wmo:42051:1,2005-12-04T19:30:00Z,29.6350,-93.6417,2.0,315.0003157,11.00258152,-99999.0,'11111222,11111222,99999999' 
TABS,ioos:station:wmo:42051:1,2005-12-04T20:00:00Z,29.6350,-93.6417,2.0,311.994632,12.00197067,-99999.0,'11111222,11111222,99999999' 
TABS,ioos:station:wmo:42051:1,2005-12-04T20:30:00Z,29.6350,-93.6417,2.0,304.9957117,14.00149278,-99999.0,'11111222,11111222,99999999' 
TABS,ioos:station:wmo:42051:1,2005-12-04T21:00:00Z,29.6350,-93.6417,2.0,296.0162672,13.99842848,-99999.0,'11111222,11111222,99999999' 
TABS,ioos:station:wmo:42051:1,2005-12-04T21:30:00Z,29.6350,-93.6417,2.0,308.0081357,13.99876066,-99999.0,'11111222,11111222,99999999' 
TABS,ioos:station:wmo:42051:1,2005-12-04T22:00:00Z,29.6350,-93.6417,2.0,287.0216523,14.99692302,-99999.0,'11111222,11111222,99999999' 
TABS,ioos:station:wmo:42051:1,2005-12-04T22:30:00Z,29.6350,-93.6417,2.0,284.0167752,13.99673176,-99999.0,'11111222,11111222,99999999' 
TABS,ioos:station:wmo:42051:1,2005-12-04T23:00:00Z,29.6350,-93.6417,2.0,278.9844834,12.99948076,-99999.0,'11111222,11111222,99999999' 
TABS,ioos:station:wmo:42051:1,2005-12-04T23:30:00Z,29.6350,-93.6417,2.0,282.0071011,9.998739921,-99999.0,'11133222,11111222,99999999' 
TABS,ioos:station:wmo:42051:1,2005-12-05T00:00:00Z,29.6350,-93.6417,2.0,258.0027078,8.996493761,-99999.0,'11133222,11111222,99999999' 
TABS,ioos:station:wmo:42051:1,2005-12-05T00:30:00Z,29.6350,-93.6417,2.0,233.9891379,10.00112494,-99999.0,'11111222,11111222,99999999' 
TABS,ioos:station:wmo:42051:1,2005-12-05T01:00:00Z,29.6350,-93.6417,2.0,238.9754246,12.99959999,-99999.0,'11111222,11111222,99999999' 
TABS,ioos:station:wmo:42051:1,2005-12-05T01:30:00Z,29.6350,-93.6417,2.0,242.0153049,13.00001538,-99999.0,'11111222,11111222,99999999' 
TABS,ioos:station:wmo:42051:1,2005-12-05T02:00:00Z,29.6350,-93.6417,2.0,248.98856,14.00090354,-99999.0,'11111222,11111222,99999999' 
TABS,ioos:station:wmo:42051:1,2005-12-05T02:30:00Z,29.6350,-93.6417,2.0,248.9964055,17.99562447,-99999.0,'11111222,11111222,99999999' 
TABS,ioos:station:wmo:42051:1,2005-12-05T03:00:00Z,29.6350,-93.6417,2.0,256.9985518,20.00275231,-99999.0,'11111222,11111222,99999999' 
TABS,ioos:station:wmo:42051:1,2005-12-05T03:30:00Z,29.6350,-93.6417,2.0,252.0033465,18.99952105,-99999.0,'11111222,11111222,99999999' 
TABS,ioos:station:wmo:42051:1,2005-12-05T04:00:00Z,29.6350,-93.6417,2.0,252.0075683,18.00022222,-99999.0,'11111222,11111222,99999999' 
TABS,ioos:station:wmo:42051:1,2005-12-05T04:30:00Z,29.6350,-93.6417,2.0,239.9989215,19.99956,-99999.0,'11111222,11111222,99999999' 
TABS,ioos:station:wmo:42051:1,2005-12-05T05:00:00Z,29.6350,-93.6417,2.0,248.0013474,19.99579206,-99999.0,'11111222,11111222,99999999' 
TABS,ioos:station:wmo:42051:1,2005-12-05T05:30:00Z,29.6350,-93.6417,2.0,256.9969406,16.00025312,-99999.0,'11111222,11111222,99999999' 
TABS,ioos:station:wmo:42051:1,2005-12-05T06:00:00Z,29.6350,-93.6417,2.0,257.999204,13.99586367,-99999.0,'11111222,11111222,99999999' 
TABS,ioos:station:wmo:42051:1,2005-12-05T06:30:00Z,29.6350,-93.6417,2.0,253.9980152,21.00381394,-99999.0,'11111222,11111222,99999999' 
TABS,ioos:station:wmo:42051:1,2005-12-05T07:00:00Z,29.6350,-93.6417,2.0,264.0074592,15.99740604,-99999.0,'11111222,11111222,99999999' 
TABS,ioos:station:wmo:42051:1,2005-12-05T07:30:00Z,29.6350,-93.6417,2.0,260.9872629,18.0022443,-99999.0,'11111222,11111222,99999999' 
TABS,ioos:station:wmo:42051:1,2005-12-05T08:00:00Z,29.6350,-93.6417,2.0,262.9918427,19.99940249,-99999.0,'11111222,11111222,99999999' 
TABS,ioos:station:wmo:42051:1,2005-12-05T08:30:00Z,29.6350,-93.6417,2.0,262.9964272,20.99664735,-99999.0,'11111222,11111222,99999999' 
TABS,ioos:station:wmo:42051:1,2005-12-05T09:00:00Z,29.6350,-93.6417,2.0,270.0004209,16.0,-99999.0,'11111222,11111222,99999999' 
TABS,ioos:station:wmo:42051:1,2005-12-05T09:30:00Z,29.6350,-93.6417,2.0,264.0039172,17.99845549,-99999.0,'11111222,11111222,99999999' 
TABS,ioos:station:wmo:42051:1,2005-12-05T10:00:00Z,29.6350,-93.6417,2.0,266.9807762,15.00081664,-99999.0,'11111222,11111222,99999999' 
TABS,ioos:station:wmo:42051:1,2005-12-05T10:30:00Z,29.6350,-93.6417,2.0,270.0004209,16.0,-99999.0,'11111222,11111222,99999999' 
TABS,ioos:station:wmo:42051:1,2005-12-05T11:00:00Z,29.6350,-93.6417,2.0,257.999204,13.99586367,-99999.0,'11111222,11111222,99999999' 
TABS,ioos:station:wmo:42051:1,2005-12-05T11:30:00Z,29.6350,-93.6417,2.0,246.0163673,13.9985785,-99999.0,'11111222,11111222,99999999' 
TABS,ioos:station:wmo:42051:1,2005-12-05T12:00:00Z,29.6350,-93.6417,2.0,249.0161042,16.00114058,-99999.0,'11111222,11111222,99999999' 
TABS,ioos:station:wmo:42051:1,2005-12-05T12:30:00Z,29.6350,-93.6417,2.0,234.0053793,14.00363524,-99999.0,'11111222,11111222,99999999' 
TABS,ioos:station:wmo:42051:1,2005-12-05T13:00:00Z,29.6350,-93.6417,2.0,263.0167519,12.9963995,-99999.0,'11111222,11111222,99999999' 
TABS,ioos:station:wmo:42051:1,2005-12-05T13:30:00Z,29.6350,-93.6417,2.0,258.0156377,13.00339956,-99999.0,'11111222,11111222,99999999' 
TABS,ioos:station:wmo:42051:1,2005-12-05T14:00:00Z,29.6350,-93.6417,2.0,252.0175939,16.00162492,-99999.0,'11111222,11111222,99999999' 
TABS,ioos:station:wmo:42051:1,2005-12-05T14:30:00Z,29.6350,-93.6417,2.0,239.990734,13.99622806,-99999.0,'11111222,11111222,99999999' 
TABS,ioos:station:wmo:42051:1,2005-12-05T15:00:00Z,29.6350,-93.6417,2.0,242.0153049,13.00001538,-99999.0,'11111222,11111222,99999999' 
TABS,ioos:station:wmo:42051:1,2005-12-05T15:30:00Z,29.6350,-93.6417,2.0,258.0027078,8.996493761,-99999.0,'11133222,11111222,99999999' 
TABS,ioos:station:wmo:42051:1,2005-12-05T16:00:00Z,29.6350,-93.6417,2.0,240.0180098,6.003332408,-99999.0,'11133222,11111222,99999999' 
TABS,ioos:station:wmo:42051:1,2005-12-05T16:30:00Z,29.6350,-93.6417,2.0,265.9874173,10.00451898,-99999.0,'11111222,11111222,99999999' 
TABS,ioos:station:wmo:42051:1,2005-12-05T17:00:00Z,29.6350,-93.6417,2.0,284.99176,8.002362151,-99999.0,'11133222,11111222,99999999' 
TABS,ioos:station:wmo:42051:1,2005-12-05T17:30:00Z,29.6350,-93.6417,2.0,284.99176,8.002362151,-99999.0,'11133222,11111222,99999999' 
TABS,ioos:station:wmo:42051:1,2005-12-05T18:00:00Z,29.6350,-93.6417,2.0,315.0003157,7.000357134,-99999.0,'11133222,11111222,99999999' 
TABS,ioos:station:wmo:42051:1,2005-12-05T18:30:00Z,29.6350,-93.6417,2.0,311.9828032,8.999805553,-99999.0,'11133222,11111222,99999999' 
TABS,ioos:station:wmo:42051:1,2005-12-05T19:00:00Z,29.6350,-93.6417,2.0,44.0277124,9.99993,-99999.0,'11133222,11111222,99999999' 
TABS,ioos:station:wmo:42051:1,2005-12-05T19:30:00Z,29.6350,-93.6417,2.0,294.003555,10.00522364,-99999.0,'11111222,11111222,99999999' 
TABS,ioos:station:wmo:42051:1,2005-12-05T20:00:00Z,29.6350,-93.6417,2.0,293.0007031,11.00485802,-99999.0,'11111222,11111222,99999999' 
TABS,ioos:station:wmo:42051:1,2005-12-05T20:30:00Z,29.6350,-93.6417,2.0,299.9966716,13.00144607,-99999.0,'11111222,11111222,99999999' 
TABS,ioos:station:wmo:42051:1,2005-12-05T21:00:00Z,29.6350,-93.6417,2.0,281.0013323,12.00052082,-99999.0,'11111222,11111222,99999999' 
TABS,ioos:station:wmo:42051:1,2005-12-05T21:30:00Z,29.6350,-93.6417,2.0,292.9947913,14.0026069,-99999.0,'11111222,11111222,99999999' 
TABS,ioos:station:wmo:42051:1,2005-12-05T22:00:00Z,29.6350,-93.6417,2.0,288.0004534,9.999409983,-99999.0,'11133222,11111222,99999999' 
TABS,ioos:station:wmo:42051:1,2005-12-05T22:30:00Z,29.6350,-93.6417,2.0,277.9864099,8.997255137,-99999.0,'11133222,11111222,99999999' 
TABS,ioos:station:wmo:42051:1,2005-12-05T23:00:00Z,29.6350,-93.6417,2.0,320.0147048,11.0022634,-99999.0,'11111222,11111222,99999999' 
TABS,ioos:station:wmo:42051:1,2005-12-05T23:30:00Z,29.6350,-93.6417,2.0,311.9828032,8.999805553,-99999.0,'11133222,11111222,99999999' 
TABS,ioos:station:wmo:42051:1,2005-12-06T00:00:00Z,29.6350,-93.6417,2.0,308.0159925,5.0009999,-99999.0,'11133222,11111222,99999999' 
TABS,ioos:station:wmo:42051:1,2005-12-06T00:30:00Z,29.6350,-93.6417,2.0,270.0004209,7.0,-99999.0,'11133222,11111222,99999999' 
TABS,ioos:station:wmo:42051:1,2005-12-06T01:00:00Z,29.6350,-93.6417,2.0,315.0003157,2.998132752,-99999.0,'11133222,11111222,99999999' 
TABS,ioos:station:wmo:42051:1,2005-12-06T01:30:00Z,29.6350,-93.6417,2.0,341.9279306,2.997899264,-99999.0,'11133222,11111222,99999999' 
TABS,ioos:station:wmo:42051:1,2005-12-06T02:00:00Z,29.6350,-93.6417,2.0,270.0004209,2.0,-99999.0,'11133222,11111222,99999999' 
TABS,ioos:station:wmo:42051:1,2005-12-06T02:30:00Z,29.6350,-93.6417,2.0,326.9463721,3.996861269,-99999.0,'11133222,11111222,99999999' 
TABS,ioos:station:wmo:42051:1,2005-12-06T03:00:00Z,29.6350,-93.6417,2.0,270.0004209,5.0,-99999.0,'11133222,11111222,99999999' 
TABS,ioos:station:wmo:42051:1,2005-12-06T03:30:00Z,29.6350,-93.6417,2.0,297.078109,3.998249617,-99999.0,'11133222,11111222,99999999' 
TABS,ioos:station:wmo:42051:1,2005-12-06T04:00:00Z,29.6350,-93.6417,2.0,305.0527128,6.999521412,-99999.0,'11133222,11111222,99999999' 
TABS,ioos:station:wmo:42051:1,2005-12-06T04:30:00Z,29.6350,-93.6417,2.0,270.0004209,1.0,-99999.0,'11133222,11111222,99999999' 
TABS,ioos:station:wmo:42051:1,2005-12-06T05:00:00Z,29.6350,-93.6417,2.0,322.9966649,5.998016339,-99999.0,'11133222,11111222,99999999' 
TABS,ioos:station:wmo:42051:1,2005-12-06T05:30:00Z,29.6350,-93.6417,2.0,20.06479502,3.002215848,-99999.0,'11133222,11111222,99999999' 
TABS,ioos:station:wmo:42051:1,2005-12-06T06:00:00Z,29.6350,-93.6417,2.0,297.078109,3.998249617,-99999.0,'11133222,11111222,99999999' 
TABS,ioos:station:wmo:42051:1,2005-12-06T06:30:00Z,29.6350,-93.6417,2.0,249.0279176,5.001299831,-99999.0,'11133222,11111222,99999999' 
TABS,ioos:station:wmo:42051:1,2005-12-06T07:00:00Z,29.6350,-93.6417,2.0,270.0004209,4.0,-99999.0,'11133222,11111222,99999999' 
TABS,ioos:station:wmo:42051:1,2005-12-06T07:30:00Z,29.6350,-93.6417,2.0,292.9730885,4.996248593,-99999.0,'11133222,11111222,99999999' 